Weather History for KSUX - September, 2013

Change the Weather History Date:

Sunday, September 8, 2013

  Actual Average Record
Temperature  
Mean Temperature 77 °F 67 °F  
Max Temperature 87 °F 79 °F 101 °F (1947)
Min Temperature 66 °F 54 °F 35 °F (1995)
Degree Days  
Heating Degree Days 0 2  
Month to date heating degree days 0 13  
Since 1 July heating degree days 20 28  
Cooling Degree Days 12 4  
Month to date cooling degree days 66 36  
Year to date cooling degree days 867 813  
Growing Degree Days 26 (Base 50)    
Moisture  
Dew Point 70 °F    
Average Humidity 89    
Maximum Humidity 100    
Minimum Humidity 60    
Precipitation  
Precipitation 0.00 in 0.10 in 1.83 in (1941)
Month to date precipitation 1.10 0.83  
Year to date precipitation 21.23 21.37  
Snow  
Snow 0.00 in 0.00 in 0.00 in ()
Month to date snowfall 0.0 0.0  
Since 1 July snowfall 0.0 0.0  
Since 1 September snowfall 0.0 0.0  
Snow Depth 0.00 in    
Sea Level Pressure  
Sea Level Pressure 29.88 in    
Wind  
Wind Speed 7 mph (ESE)    
Max Wind Speed 16 mph    
Max Gust Speed 21 mph    
Visibility 5 miles    
Events Fog    
T = Trace of Precipitation, MM = Missing Value Source: NWS Daily Summary

Daily Weather History Graph

Daily Weather History Graph

Search for Another Location

Airport or City:

Trip Planner

Search our weather history database for the weather conditions in past years. The results will help you decide how hot, cold, wet, or windy it might be!

Date:

Astronomy

Sep. 08, 2013 Rise Set
Actual Time 6:58 AM CDT 7:47 PM CDT
Civil Twilight 6:29 AM CDT 8:15 PM CDT
Nautical Twilight 5:55 AM CDT 8:49 PM CDT
Astronomical Twilight 5:20 AM CDT 9:24 PM CDT
Moon 10:22 AM CDT (9/8) 9:17 PM CDT (9/8)
Length of Visible Light 13h 45m
Length of Day
12h 48m
Waxing Crescent, 11% of the Moon is Illuminated
Sep 8
Waxing Crescent
Sep 12
First Quarter
Sep 19
Full
Sep 26
Last Quarter
Oct 4
New

Hourly Weather History & Observations

Time (CDT) Temp. Heat Index Dew Point Humidity Pressure Visibility Wind Dir Wind Speed Gust Speed Precip Events Conditions
12:05 AM 71.6 °F - 71.6 °F 100% 29.94 in 0.8 mi Calm Calm - N/A   Mist
12:13 AM 71.6 °F - 71.6 °F 100% 29.94 in 2.0 mi Calm Calm - N/A   Mostly Cloudy
12:25 AM 69.8 °F - 69.8 °F 100% 29.95 in 0.8 mi Calm Calm - N/A   Mist
12:34 AM 71.6 °F - 71.6 °F 100% 29.95 in 0.2 mi Calm Calm - N/A Fog Fog
12:40 AM 71.6 °F - 71.6 °F 100% 29.95 in 1.0 mi Calm Calm - N/A   Mist
12:52 AM 68.0 °F - 68.0 °F 100% 29.93 in 0.2 mi Calm Calm - N/A Fog Fog
1:30 AM 68.0 °F - 68.0 °F 100% 29.95 in 0.2 mi Calm Calm - N/A Fog Fog
1:44 AM 69.8 °F - 69.8 °F 100% 29.94 in 0.5 mi Calm Calm - N/A Fog Fog
1:52 AM 69.1 °F - 69.1 °F 100% 29.92 in 0.5 mi Calm Calm - N/A Fog Fog
1:57 AM 68.0 °F - 68.0 °F 100% 29.94 in 1.2 mi Calm Calm - N/A   Partly Cloudy
2:01 AM 69.8 °F - 68.0 °F 94% 29.93 in 3.0 mi Calm Calm - N/A   Partly Cloudy
2:52 AM 68.0 °F - 68.0 °F 100% 29.91 in 4.0 mi Calm Calm - N/A   Clear
3:52 AM 70.0 °F - 69.1 °F 97% 29.91 in 5.0 mi NNE 3.5 mph - N/A   Clear
4:52 AM 70.0 °F - 69.1 °F 97% 29.88 in 5.0 mi East 4.6 mph - N/A   Clear
5:35 AM 66.2 °F - 66.2 °F 100% 29.92 in 1.8 mi Calm Calm - N/A   Clear
5:45 AM 66.2 °F - 66.2 °F 100% 29.91 in 0.2 mi Calm Calm - N/A Fog Fog
5:52 AM 66.0 °F - 66.0 °F 100% 29.90 in 0.2 mi Calm Calm - N/A Fog Fog
6:05 AM 66.2 °F - 66.2 °F 100% 29.91 in 0.2 mi Calm Calm - N/A Fog Fog
6:10 AM 66.2 °F - 64.4 °F 94% 29.91 in 0.2 mi Calm Calm - N/A Fog Fog
6:15 AM 66.2 °F - 66.2 °F 100% 29.91 in 1.0 mi Calm Calm - N/A   Mist
6:44 AM 66.2 °F - 66.2 °F 100% 29.92 in 1.0 mi Calm Calm - N/A   Clear
6:52 AM 66.9 °F - 66.0 °F 97% 29.90 in 4.0 mi Calm Calm - N/A   Clear
7:00 AM 66.2 °F - 66.2 °F 100% 29.91 in 1.8 mi Calm Calm - N/A   Clear
7:12 AM 69.8 °F - 69.8 °F 100% 29.91 in 4.0 mi East 8.1 mph - N/A   Clear
7:52 AM 72.0 °F - 70.0 °F 93% 29.91 in 6.0 mi NNE 6.9 mph - N/A   Clear
8:52 AM 75.0 °F - 72.0 °F 90% 29.92 in 8.0 mi ENE 11.5 mph - N/A   Clear
9:52 AM 75.9 °F - 72.0 °F 87% 29.92 in 9.0 mi East 9.2 mph - N/A   Clear
10:52 AM 80.1 °F 84.2 °F 73.0 °F 79% 29.91 in 10.0 mi East 8.1 mph - N/A   Partly Cloudy
11:52 AM 82.0 °F 87.4 °F 73.0 °F 74% 29.88 in 10.0 mi ESE 13.8 mph - N/A   Clear
12:52 PM 84.9 °F 91.4 °F 73.0 °F 67% 29.88 in 10.0 mi ESE 12.7 mph - N/A   Clear
1:52 PM 86.0 °F 93.8 °F 73.9 °F 67% 29.86 in 10.0 mi ESE 11.5 mph 17.3 mph N/A   Mostly Cloudy
2:02 PM 84.2 °F 90.9 °F 73.4 °F 70% 29.89 in 10.0 mi ESE 10.4 mph - N/A   Scattered Clouds
2:52 PM 86.0 °F 93.8 °F 73.9 °F 67% 29.84 in 10.0 mi ESE 11.5 mph - N/A   Partly Cloudy
3:52 PM 87.1 °F 95.4 °F 73.9 °F 65% 29.81 in 10.0 mi SE 12.7 mph - N/A   Clear
4:52 PM 86.0 °F 93.8 °F 73.9 °F 67% 29.81 in 10.0 mi SE 11.5 mph - N/A   Clear
5:52 PM 84.9 °F 92.1 °F 73.9 °F 69% 29.80 in 10.0 mi ESE 10.4 mph - N/A   Clear
6:52 PM 82.9 °F 90.2 °F 75.0 °F 77% 29.78 in 10.0 mi ESE 6.9 mph - N/A   Clear
7:52 PM 79.0 °F - 73.9 °F 84% 29.77 in 8.0 mi ESE 5.8 mph - N/A   Clear
8:52 PM 78.1 °F - 73.0 °F 84% 29.77 in 9.0 mi ESE 9.2 mph - N/A   Clear
9:52 PM 77.0 °F - 73.0 °F 88% 29.77 in 9.0 mi ESE 8.1 mph - N/A   Clear
10:52 PM 75.0 °F - 72.0 °F 90% 29.76 in 8.0 mi ESE 6.9 mph - N/A   Clear
11:52 PM 73.9 °F - 72.0 °F 93% 29.76 in 6.0 mi ESE 6.9 mph - N/A   Clear